AIC812 OMDB-VAAH

Flight info

Callsign AIC812
Flight time 2h 15m
Altitude 37000
Route IVURO M677 LALDO B505 NADSO B524 ALPOR M504 TELEM N893 VASLA VASLA1A
Aircraft A319/M-SDE3FGHIRWY/LB1

Departure

Time 2026-04-26 09:05
Airport Dubai International Airport (OMDB)

Arrival

Time 2026-04-26 11:20
Airport Sardar Vallabh Patel International Airport (VAAH)
Time Latitude Longitude Altitude Speed Heading
2026-04-26 08:09 25.26011 55.34297 22 ft 0 kts 211°
2026-04-26 08:50 25.26020 55.34303 21 ft 4 kts 211°
2026-04-26 08:51 25.26061 55.34331 21 ft 4 kts 207°
2026-04-26 08:51 25.26085 55.34338 21 ft 4 kts 162°
2026-04-26 08:51 25.26103 55.34322 21 ft 3 kts 122°
2026-04-26 08:52 25.26111 55.34308 21 ft 0 kts 122°
2026-04-26 08:54 25.26108 55.34314 21 ft 3 kts 122°
2026-04-26 08:54 25.26091 55.34344 21 ft 7 kts 122°
2026-04-26 08:54 25.26060 55.34399 21 ft 10 kts 122°
2026-04-26 08:54 25.26022 55.34465 23 ft 10 kts 122°
2026-04-26 08:55 25.25999 55.34510 21 ft 10 kts 111°
2026-04-26 08:55 25.26048 55.34584 21 ft 10 kts 34°
2026-04-26 08:55 25.26104 55.34647 23 ft 13 kts 47°
2026-04-26 08:55 25.26170 55.34726 21 ft 14 kts 47°
2026-04-26 08:56 25.26248 55.34792 22 ft 14 kts 30°
2026-04-26 08:56 25.26285 55.34816 22 ft 6 kts 31°
2026-04-26 08:56 25.26310 55.34833 22 ft 1 kts 31°
2026-04-26 08:56 25.26315 55.34837 22 ft 2 kts 31°
2026-04-26 08:57 25.26346 55.34860 23 ft 6 kts 44°
2026-04-26 08:57 25.26356 55.34889 23 ft 7 kts 85°
2026-04-26 08:57 25.26330 55.34949 24 ft 11 kts 121°
2026-04-26 08:57 25.26285 55.35030 25 ft 15 kts 122°
2026-04-26 08:58 25.26224 55.35138 23 ft 19 kts 122°
2026-04-26 08:58 25.26148 55.35272 23 ft 22 kts 122°
2026-04-26 08:58 25.26061 55.35427 22 ft 24 kts 122°
2026-04-26 08:58 25.25943 55.35636 24 ft 24 kts 122°
2026-04-26 08:59 25.25884 55.35742 23 ft 24 kts 121°
2026-04-26 08:59 25.25797 55.35896 22 ft 23 kts 122°
2026-04-26 08:59 25.25712 55.36047 22 ft 23 kts 122°
2026-04-26 08:59 25.25629 55.36196 23 ft 23 kts 121°
2026-04-26 09:00 25.25546 55.36344 24 ft 23 kts 121°
2026-04-26 09:00 25.25465 55.36489 24 ft 22 kts 122°
2026-04-26 09:00 25.25383 55.36635 21 ft 22 kts 122°
2026-04-26 09:00 25.25301 55.36780 23 ft 22 kts 122°
2026-04-26 09:01 25.25220 55.36923 22 ft 22 kts 122°
2026-04-26 09:01 25.25141 55.37063 24 ft 21 kts 122°
2026-04-26 09:01 25.25065 55.37198 23 ft 21 kts 122°
2026-04-26 09:01 25.24990 55.37331 26 ft 20 kts 122°
2026-04-26 09:02 25.24916 55.37461 25 ft 20 kts 122°
2026-04-26 09:02 25.24842 55.37592 24 ft 20 kts 122°
2026-04-26 09:02 25.24769 55.37723 23 ft 20 kts 121°
2026-04-26 09:02 25.24698 55.37852 24 ft 17 kts 121°
2026-04-26 09:03 25.24663 55.37930 22 ft 10 kts 93°
2026-04-26 09:03 25.24700 55.37980 25 ft 9 kts 30°
2026-04-26 09:03 25.24748 55.38011 25 ft 7 kts 30°
2026-04-26 09:03 25.24798 55.38019 28 ft 9 kts 341°
2026-04-26 09:04 25.24839 55.37965 25 ft 18 kts 304°
2026-04-26 09:04 25.25026 55.37631 26 ft 82 kts 301°
2026-04-26 09:04 25.25421 55.36919 27 ft 133 kts 301°
2026-04-26 09:04 25.25972 55.35914 111 ft 165 kts 302°
2026-04-26 09:05 25.26564 55.34829 657 ft 166 kts 303°
2026-04-26 09:05 25.27170 55.33739 1225 ft 168 kts 303°
2026-04-26 09:05 25.27803 55.32607 1658 ft 178 kts 303°
2026-04-26 09:05 25.28463 55.31421 2176 ft 183 kts 303°
2026-04-26 09:06 25.29208 55.30263 2645 ft 191 kts 316°
2026-04-26 09:06 25.30430 55.29549 2907 ft 214 kts 350°
2026-04-26 09:06 25.31926 55.29854 3131 ft 240 kts 29°
2026-04-26 09:06 25.33058 55.31307 3468 ft 267 kts 66°
2026-04-26 09:07 25.33425 55.33362 4156 ft 278 kts 84°
2026-04-26 09:07 25.33414 55.35518 4885 ft 283 kts 92°
2026-04-26 09:07 25.33277 55.37712 5681 ft 287 kts 94°
2026-04-26 09:07 25.33132 55.39928 6432 ft 292 kts 93°
2026-04-26 09:08 25.33024 55.42181 7147 ft 296 kts 92°
2026-04-26 09:08 25.32959 55.44471 7882 ft 299 kts 91°
2026-04-26 09:08 25.32930 55.46777 8634 ft 302 kts 90°
2026-04-26 09:08 25.32921 55.49117 9375 ft 306 kts 90°
2026-04-26 09:09 25.32922 55.51484 10078 ft 311 kts 90°
2026-04-26 09:09 25.32927 55.53949 10334 ft 333 kts 90°
2026-04-26 09:09 25.32929 55.56594 10484 ft 356 kts 90°
2026-04-26 09:09 25.32926 55.59415 10617 ft 377 kts 90°
2026-04-26 09:10 25.32923 55.62383 10731 ft 396 kts 90°
2026-04-26 09:10 25.32921 55.65445 10922 ft 410 kts 90°
2026-04-26 09:10 25.32921 55.68624 11366 ft 416 kts 91°
2026-04-26 09:10 25.32918 55.71830 11950 ft 418 kts 91°
2026-04-26 09:11 25.32910 55.75064 12463 ft 422 kts 91°
2026-04-26 09:11 25.32900 55.78315 13020 ft 424 kts 91°
2026-04-26 09:11 25.32891 55.81585 13566 ft 427 kts 91°
2026-04-26 09:11 25.32882 55.84885 14016 ft 432 kts 91°
2026-04-26 09:12 25.32874 55.88214 14484 ft 435 kts 91°
2026-04-26 09:12 25.32864 55.91570 14922 ft 439 kts 91°
2026-04-26 09:12 25.32856 55.94960 15337 ft 443 kts 91°
2026-04-26 09:12 25.32848 55.98372 15772 ft 446 kts 91°
2026-04-26 09:13 25.32838 56.01811 16176 ft 449 kts 91°
2026-04-26 09:13 25.32828 56.05275 16596 ft 452 kts 91°
2026-04-26 09:13 25.32815 56.08772 16995 ft 456 kts 91°
2026-04-26 09:13 25.32799 56.12286 17395 ft 459 kts 91°
2026-04-26 09:14 25.32767 56.15822 17767 ft 462 kts 92°
2026-04-26 09:14 25.32621 56.19328 18132 ft 465 kts 94°
2026-04-26 09:14 25.32351 56.22899 18451 ft 468 kts 96°
2026-04-26 09:14 25.32006 56.26481 18782 ft 470 kts 97°
2026-04-26 09:15 25.31633 56.30078 19100 ft 473 kts 97°
2026-04-26 09:15 25.31266 56.33695 19429 ft 474 kts 97°
2026-04-26 09:15 25.30921 56.37327 19776 ft 476 kts 97°
2026-04-26 09:15 25.30623 56.40984 20083 ft 479 kts 95°
2026-04-26 09:16 25.30438 56.44673 20380 ft 482 kts 93°
2026-04-26 09:16 25.30343 56.48387 20674 ft 485 kts 92°
2026-04-26 09:16 25.30292 56.52122 20961 ft 488 kts 91°
2026-04-26 09:16 25.30239 56.55882 21230 ft 490 kts 93°
2026-04-26 09:17 25.29858 56.59621 21488 ft 491 kts 102°
2026-04-26 09:17 25.28951 56.63251 21737 ft 491 kts 112°
2026-04-26 09:17 25.27661 56.66690 21982 ft 492 kts 115°
2026-04-26 09:17 25.26317 56.70175 22235 ft 494 kts 115°
2026-04-26 09:18 25.24975 56.73680 22485 ft 497 kts 115°
2026-04-26 09:18 25.23636 56.77204 22740 ft 499 kts 115°
2026-04-26 09:18 25.22298 56.80746 22987 ft 501 kts 115°
2026-04-26 09:18 25.20956 56.84304 23235 ft 503 kts 115°
2026-04-26 09:19 25.19607 56.87876 23452 ft 505 kts 115°
2026-04-26 09:19 25.18247 56.91461 23648 ft 507 kts 115°
2026-04-26 09:19 25.16877 56.95055 23844 ft 509 kts 115°
2026-04-26 09:19 25.15500 56.98658 24051 ft 510 kts 115°
2026-04-26 09:20 25.14112 57.02278 24234 ft 512 kts 115°
2026-04-26 09:20 25.12721 57.05899 24438 ft 513 kts 115°
2026-04-26 09:20 25.11344 57.09484 24633 ft 515 kts 115°
2026-04-26 09:20 25.09949 57.13129 24821 ft 517 kts 115°
2026-04-26 09:21 25.08557 57.16783 25067 ft 517 kts 115°
2026-04-26 09:21 25.07167 57.20434 25362 ft 516 kts 115°
2026-04-26 09:21 25.05774 57.24077 25650 ft 515 kts 115°
2026-04-26 09:21 25.04381 57.27715 25959 ft 515 kts 115°
2026-04-26 09:22 25.02988 57.31348 26255 ft 514 kts 115°
2026-04-26 09:22 25.01593 57.34974 26567 ft 513 kts 115°
2026-04-26 09:22 25.00196 57.38593 26880 ft 513 kts 115°
2026-04-26 09:22 24.98802 57.42209 27184 ft 512 kts 115°
2026-04-26 09:23 24.97412 57.45818 27548 ft 511 kts 115°
2026-04-26 09:23 24.96045 57.49371 27877 ft 510 kts 115°
2026-04-26 09:23 24.94659 57.52966 28229 ft 509 kts 115°
2026-04-26 09:23 24.93271 57.56562 28571 ft 509 kts 115°
2026-04-26 09:24 24.91886 57.60145 28924 ft 508 kts 115°
2026-04-26 09:24 24.90501 57.63722 29280 ft 507 kts 115°
2026-04-26 09:24 24.89116 57.67294 29643 ft 507 kts 115°
2026-04-26 09:24 24.87731 57.70858 29993 ft 506 kts 115°
2026-04-26 09:25 24.86344 57.74420 30277 ft 506 kts 115°
2026-04-26 09:25 24.84956 57.77984 30529 ft 507 kts 114°
2026-04-26 09:25 24.83567 57.81555 30780 ft 508 kts 114°
2026-04-26 09:25 24.82166 57.85069 31025 ft 508 kts 115°
2026-04-26 09:26 24.80680 57.88595 31311 ft 508 kts 116°
2026-04-26 09:26 24.79139 57.92096 31569 ft 509 kts 116°
2026-04-26 09:26 24.77565 57.95593 31850 ft 509 kts 117°
2026-04-26 09:26 24.75990 57.99082 32124 ft 510 kts 116°
2026-04-26 09:27 24.74426 58.02583 32377 ft 510 kts 116°
2026-04-26 09:27 24.72873 58.06098 32628 ft 511 kts 115°
2026-04-26 09:27 24.71331 58.09625 32882 ft 512 kts 115°
2026-04-26 09:27 24.69793 58.13162 33134 ft 513 kts 115°
2026-04-26 09:28 24.68252 58.16705 33391 ft 514 kts 114°
2026-04-26 09:28 24.66704 58.20251 33660 ft 515 kts 114°
2026-04-26 09:28 24.65171 58.23751 33928 ft 515 kts 114°
2026-04-26 09:28 24.63615 58.27297 34171 ft 515 kts 114°
2026-04-26 09:29 24.62057 58.30841 34422 ft 515 kts 114°
2026-04-26 09:29 24.60491 58.34390 34670 ft 515 kts 114°
2026-04-26 09:29 24.58930 58.37923 34916 ft 515 kts 114°
2026-04-26 09:29 24.57368 58.41464 35154 ft 515 kts 114°
2026-04-26 09:30 24.55805 58.45003 35384 ft 515 kts 114°
2026-04-26 09:30 24.54242 58.48541 35624 ft 515 kts 114°
2026-04-26 09:30 24.52677 58.52079 35887 ft 514 kts 114°
2026-04-26 09:30 24.51116 58.55605 36124 ft 513 kts 114°
2026-04-26 09:31 24.49557 58.59128 36338 ft 513 kts 114°
2026-04-26 09:31 24.48017 58.62604 36542 ft 513 kts 114°
2026-04-26 09:31 24.46458 58.66126 36751 ft 513 kts 114°
2026-04-26 09:32 24.43323 58.73193 36830 ft 516 kts 114°
2026-04-26 09:32 24.40175 58.80275 36833 ft 517 kts 114°
2026-04-26 09:33 24.37024 58.87357 36828 ft 517 kts 114°
2026-04-26 09:33 24.33871 58.94445 36827 ft 517 kts 114°
2026-04-26 09:34 24.30712 59.01520 36831 ft 517 kts 114°
2026-04-26 09:34 24.27550 59.08590 36838 ft 516 kts 114°
2026-04-26 09:35 24.24411 59.15605 36842 ft 516 kts 114°
2026-04-26 09:35 24.21261 59.22661 36844 ft 515 kts 114°
2026-04-26 09:36 24.18102 59.29708 36842 ft 515 kts 114°
2026-04-26 09:36 24.14932 59.36750 36850 ft 515 kts 114°
2026-04-26 09:37 24.11762 59.43775 36840 ft 514 kts 114°
2026-04-26 09:37 24.08597 59.50789 36844 ft 514 kts 114°
2026-04-26 09:38 24.05460 59.57747 36842 ft 513 kts 114°
2026-04-26 09:38 24.02302 59.64743 36849 ft 513 kts 114°
2026-04-26 09:39 23.99142 59.71723 36846 ft 512 kts 114°
2026-04-26 09:39 23.95984 59.78693 36845 ft 511 kts 114°
2026-04-26 09:40 23.92813 59.85659 36836 ft 511 kts 114°
2026-04-26 09:40 23.89638 59.92609 36850 ft 511 kts 114°
2026-04-26 09:41 23.86472 59.99547 36850 ft 510 kts 114°
2026-04-26 09:41 23.83339 60.06431 36847 ft 509 kts 114°
2026-04-26 09:42 23.80181 60.13349 36844 ft 509 kts 114°
2026-04-26 09:42 23.77023 60.20260 36848 ft 509 kts 114°
2026-04-26 09:43 23.73859 60.27169 36848 ft 508 kts 114°
2026-04-26 09:43 23.70696 60.34066 36845 ft 508 kts 114°
2026-04-26 09:44 23.67531 60.40958 36843 ft 508 kts 114°
2026-04-26 09:44 23.64378 60.47796 36844 ft 508 kts 115°
2026-04-26 09:45 23.61206 60.54674 36845 ft 508 kts 115°
2026-04-26 09:45 23.58035 60.61545 36842 ft 507 kts 115°
2026-04-26 09:46 23.54870 60.68412 36834 ft 507 kts 114°
2026-04-26 09:46 23.51700 60.75277 36840 ft 506 kts 114°
2026-04-26 09:47 23.48550 60.82075 36850 ft 506 kts 115°
2026-04-26 09:47 23.45371 60.88901 36848 ft 505 kts 115°
2026-04-26 09:48 23.42203 60.95722 36843 ft 505 kts 115°
2026-04-26 09:48 23.39035 61.02535 36844 ft 504 kts 115°
2026-04-26 09:49 23.35863 61.09339 36847 ft 504 kts 115°
2026-04-26 09:49 23.32785 61.16181 36843 ft 501 kts 108°
2026-04-26 09:50 23.31222 61.23418 36847 ft 492 kts 91°
2026-04-26 09:50 23.30572 61.30823 36844 ft 492 kts 92°
2026-04-26 09:51 23.29911 61.38227 36854 ft 492 kts 92°
2026-04-26 09:51 23.29247 61.45625 36849 ft 491 kts 92°
2026-04-26 09:52 23.28584 61.53011 36848 ft 490 kts 92°
2026-04-26 09:52 23.27599 61.64035 36843 ft 490 kts 92°
2026-04-26 09:53 23.26932 61.71410 36840 ft 490 kts 92°
2026-04-26 09:53 23.26253 61.78788 36844 ft 491 kts 92°
2026-04-26 09:54 23.25566 61.86170 36847 ft 491 kts 92°
2026-04-26 09:54 23.24885 61.93550 36851 ft 490 kts 92°
2026-04-26 09:55 23.24212 62.00872 36848 ft 489 kts 92°
2026-04-26 09:55 23.23535 62.08228 36849 ft 489 kts 92°
2026-04-26 09:56 23.22848 62.15580 36845 ft 488 kts 92°
2026-04-26 09:56 23.22150 62.22915 36845 ft 488 kts 93°
2026-04-26 09:57 23.21451 62.30247 36845 ft 487 kts 92°
2026-04-26 09:57 23.20761 62.37571 36842 ft 487 kts 92°
2026-04-26 09:58 23.20060 62.44884 36838 ft 486 kts 93°
2026-04-26 09:58 23.19358 62.52146 36838 ft 487 kts 93°
2026-04-26 09:59 23.18775 62.58230 36839 ft 487 kts 93°
2026-04-26 09:59 23.17943 62.66787 36831 ft 487 kts 93°
2026-04-26 10:00 23.17229 62.74109 36831 ft 488 kts 93°
2026-04-26 10:00 23.16521 62.81435 36829 ft 488 kts 93°
2026-04-26 10:01 23.15809 62.88712 36834 ft 488 kts 94°
2026-04-26 10:01 23.15081 62.96036 36837 ft 488 kts 94°
2026-04-26 10:02 23.14352 63.03359 36838 ft 487 kts 94°
2026-04-26 10:02 23.13630 63.10683 36837 ft 487 kts 93°
2026-04-26 10:03 23.12900 63.17995 36844 ft 487 kts 94°
2026-04-26 10:03 23.12154 63.25302 36837 ft 487 kts 94°
2026-04-26 10:04 23.11410 63.32605 36830 ft 486 kts 94°
2026-04-26 10:04 23.10673 63.39858 36829 ft 486 kts 94°
2026-04-26 10:05 23.09926 63.47156 36834 ft 486 kts 94°
2026-04-26 10:05 23.09181 63.54459 36833 ft 486 kts 94°
2026-04-26 10:06 23.08427 63.61754 36832 ft 486 kts 94°
2026-04-26 10:06 23.07671 63.69051 36830 ft 486 kts 94°
2026-04-26 10:07 23.06914 63.76350 36844 ft 487 kts 94°
2026-04-26 10:07 23.06153 63.83647 36846 ft 486 kts 94°
2026-04-26 10:08 23.05394 63.90894 36845 ft 486 kts 94°
2026-04-26 10:08 23.04653 63.98185 36843 ft 486 kts 94°
2026-04-26 10:09 23.04050 64.04241 36840 ft 486 kts 94°
2026-04-26 10:09 23.03183 64.12755 36845 ft 485 kts 94°
2026-04-26 10:10 23.02436 64.20029 36840 ft 485 kts 94°
2026-04-26 10:10 23.01683 64.27300 36837 ft 485 kts 94°
2026-04-26 10:11 23.00925 64.34524 36842 ft 485 kts 94°
2026-04-26 10:11 23.00172 64.41802 36847 ft 485 kts 94°
2026-04-26 10:12 22.99410 64.49086 36846 ft 485 kts 95°
2026-04-26 10:12 22.98639 64.56358 36847 ft 485 kts 95°
2026-04-26 10:13 22.97877 64.63631 36838 ft 485 kts 95°
2026-04-26 10:13 22.97109 64.70904 36838 ft 485 kts 95°
2026-04-26 10:14 22.96333 64.78171 36837 ft 485 kts 95°
2026-04-26 10:14 22.95781 64.85396 36834 ft 482 kts 87°
2026-04-26 10:15 22.95829 64.92673 36835 ft 482 kts 87°
2026-04-26 10:15 22.95881 64.99950 36825 ft 482 kts 88°
2026-04-26 10:16 22.95916 65.07227 36829 ft 482 kts 88°
2026-04-26 10:16 22.95948 65.14511 36831 ft 482 kts 88°
2026-04-26 10:17 22.95972 65.20553 36824 ft 482 kts 88°
2026-04-26 10:17 22.96008 65.27821 36827 ft 482 kts 88°
2026-04-26 10:18 22.96047 65.36268 36826 ft 482 kts 88°
2026-04-26 10:18 22.96067 65.42358 36824 ft 481 kts 89°
2026-04-26 10:19 22.96087 65.49572 36821 ft 481 kts 89°
2026-04-26 10:19 22.96093 65.56836 36820 ft 481 kts 89°
2026-04-26 10:20 22.96100 65.64100 36824 ft 482 kts 89°
2026-04-26 10:20 22.96110 65.71363 36823 ft 481 kts 89°
2026-04-26 10:21 22.96127 65.78633 36821 ft 482 kts 89°
2026-04-26 10:21 22.96136 65.85897 36824 ft 482 kts 89°
2026-04-26 10:22 22.96136 65.93175 36829 ft 482 kts 89°
2026-04-26 10:22 22.96131 66.00446 36833 ft 482 kts 89°
2026-04-26 10:23 22.96124 66.07670 36834 ft 482 kts 89°
2026-04-26 10:23 22.96113 66.14940 36831 ft 482 kts 89°
2026-04-26 10:24 22.96096 66.22209 36829 ft 482 kts 89°
2026-04-26 10:24 22.96073 66.29486 36832 ft 482 kts 89°
2026-04-26 10:25 22.96056 66.36755 36829 ft 482 kts 89°
2026-04-26 10:25 22.96041 66.44023 36829 ft 482 kts 89°
2026-04-26 10:26 22.96019 66.51293 36827 ft 482 kts 89°
2026-04-26 10:26 22.95990 66.58574 36831 ft 482 kts 90°
2026-04-26 10:27 22.95952 66.65798 36833 ft 483 kts 90°
2026-04-26 10:27 22.95915 66.73084 36837 ft 483 kts 90°
2026-04-26 10:28 22.95872 66.80370 36833 ft 483 kts 90°
2026-04-26 10:28 22.95831 66.87663 36833 ft 483 kts 90°
2026-04-26 10:29 22.95785 66.94946 36837 ft 483 kts 90°
2026-04-26 10:29 22.95761 67.02226 36834 ft 483 kts 89°
2026-04-26 10:30 22.95794 67.09504 36829 ft 482 kts 89°
2026-04-26 10:30 22.95828 67.16732 36827 ft 482 kts 89°
2026-04-26 10:31 22.95840 67.24011 36831 ft 483 kts 89°
2026-04-26 10:31 22.95836 67.31293 36831 ft 483 kts 89°
2026-04-26 10:32 22.95837 67.38583 36834 ft 483 kts 89°
2026-04-26 10:32 22.95838 67.45867 36832 ft 483 kts 89°
2026-04-26 10:33 22.95835 67.53101 36827 ft 483 kts 89°
2026-04-26 10:33 22.95825 67.60381 36826 ft 482 kts 89°
2026-04-26 10:34 22.95822 67.67656 36820 ft 482 kts 89°
2026-04-26 10:34 22.95808 67.74926 36820 ft 482 kts 90°
2026-04-26 10:35 22.95788 67.82190 36819 ft 481 kts 90°
2026-04-26 10:35 22.95775 67.89459 36817 ft 481 kts 89°
2026-04-26 10:36 22.95779 67.96671 36812 ft 481 kts 89°
2026-04-26 10:36 22.95791 68.03929 36810 ft 481 kts 89°
2026-04-26 10:37 22.95804 68.11184 36807 ft 481 kts 89°
2026-04-26 10:37 22.95801 68.18439 36802 ft 481 kts 89°
2026-04-26 10:38 22.95789 68.25695 36807 ft 481 kts 89°
2026-04-26 10:38 22.95790 68.32960 36810 ft 481 kts 89°
2026-04-26 10:39 22.95748 68.40219 36808 ft 481 kts 91°
2026-04-26 10:39 22.95379 68.47420 36808 ft 481 kts 94°
2026-04-26 10:40 22.94848 68.54659 36804 ft 481 kts 94°
2026-04-26 10:40 22.94321 68.58236 36806 ft 481 kts 106°
2026-04-26 10:40 22.93367 68.61711 36809 ft 481 kts 107°
2026-04-26 10:41 22.91286 68.68601 36803 ft 481 kts 109°
2026-04-26 10:41 22.89181 68.75489 36792 ft 481 kts 108°
2026-04-26 10:42 22.87218 68.82418 36787 ft 481 kts 107°
2026-04-26 10:42 22.85317 68.89368 36783 ft 481 kts 107°
2026-04-26 10:43 22.83411 68.96266 36791 ft 481 kts 107°
2026-04-26 10:43 22.81460 69.03205 36788 ft 481 kts 107°
2026-04-26 10:44 22.79496 69.10149 36794 ft 482 kts 107°
2026-04-26 10:44 22.77543 69.17089 36794 ft 482 kts 107°
2026-04-26 10:45 22.75590 69.24034 36783 ft 482 kts 107°
2026-04-26 10:45 22.73622 69.30989 36788 ft 483 kts 107°
2026-04-26 10:46 22.71643 69.37948 36788 ft 484 kts 107°
2026-04-26 10:46 22.69674 69.44867 36794 ft 484 kts 107°
2026-04-26 10:47 22.67696 69.51842 36811 ft 484 kts 107°
2026-04-26 10:47 22.65716 69.58808 36807 ft 484 kts 107°
2026-04-26 10:48 22.63725 69.65765 36802 ft 484 kts 108°
2026-04-26 10:48 22.61733 69.72725 36806 ft 484 kts 108°
2026-04-26 10:49 22.59738 69.79688 36815 ft 485 kts 108°
2026-04-26 10:49 22.57736 69.86652 36813 ft 485 kts 108°
2026-04-26 10:50 22.56466 69.92540 36814 ft 484 kts 92°
2026-04-26 10:50 22.56921 69.97313 36818 ft 482 kts 76°
2026-04-26 10:50 22.57716 70.00839 36813 ft 483 kts 75°
2026-04-26 10:51 22.60139 70.11427 36819 ft 484 kts 75°
2026-04-26 10:52 22.61740 70.18500 36818 ft 484 kts 75°
2026-04-26 10:52 22.63331 70.25586 36820 ft 484 kts 76°
2026-04-26 10:53 22.64919 70.32666 36825 ft 484 kts 76°
2026-04-26 10:53 22.66492 70.39700 36830 ft 484 kts 76°
2026-04-26 10:54 22.68868 70.50319 36824 ft 484 kts 76°
2026-04-26 10:54 22.70451 70.57397 36836 ft 484 kts 76°
2026-04-26 10:55 22.72026 70.64477 36829 ft 484 kts 76°
2026-04-26 10:55 22.73595 70.71557 36823 ft 483 kts 76°
2026-04-26 10:56 22.75153 70.78597 36811 ft 483 kts 76°
2026-04-26 10:56 22.76714 70.85676 36451 ft 482 kts 76°
2026-04-26 10:57 22.77494 70.89212 36214 ft 482 kts 76°
2026-04-26 10:57 22.78273 70.92739 35969 ft 481 kts 76°
2026-04-26 10:57 22.79050 70.96267 35727 ft 481 kts 76°
2026-04-26 10:57 22.79823 70.99792 35487 ft 481 kts 76°
2026-04-26 10:58 22.80595 71.03318 35240 ft 481 kts 76°
2026-04-26 10:58 22.81369 71.06839 35004 ft 479 kts 75°
2026-04-26 10:58 22.82143 71.10351 34772 ft 479 kts 76°
2026-04-26 10:58 22.82914 71.13861 34541 ft 478 kts 76°
2026-04-26 10:59 22.83679 71.17362 34301 ft 478 kts 76°
2026-04-26 10:59 22.84441 71.20863 34047 ft 477 kts 76°
2026-04-26 10:59 22.85207 71.24374 33051 ft 481 kts 76°
2026-04-26 10:59 22.85979 71.27895 32287 ft 479 kts 76°
2026-04-26 11:00 22.86727 71.31314 31961 ft 467 kts 76°
2026-04-26 11:00 22.87468 71.34718 31472 ft 460 kts 76°
2026-04-26 11:00 22.88189 71.38070 30956 ft 453 kts 77°
2026-04-26 11:00 22.88903 71.41364 30656 ft 443 kts 77°
2026-04-26 11:01 22.89602 71.44579 30304 ft 434 kts 77°
2026-04-26 11:01 22.90291 71.47747 29866 ft 429 kts 77°
2026-04-26 11:01 22.90974 71.50878 29329 ft 425 kts 77°
2026-04-26 11:01 22.91649 71.53981 28769 ft 421 kts 77°
2026-04-26 11:02 22.92313 71.57056 28241 ft 417 kts 77°
2026-04-26 11:02 22.92967 71.60098 27754 ft 412 kts 77°
2026-04-26 11:02 22.93613 71.63106 27276 ft 407 kts 76°
2026-04-26 11:02 22.94252 71.66083 26736 ft 402 kts 76°
2026-04-26 11:03 22.94876 71.68981 26107 ft 399 kts 76°
2026-04-26 11:03 22.95504 71.71901 25538 ft 394 kts 76°
2026-04-26 11:03 22.96123 71.74787 24939 ft 392 kts 76°
2026-04-26 11:03 22.96737 71.77653 24381 ft 388 kts 76°
2026-04-26 11:04 22.97345 71.80491 23854 ft 385 kts 76°
2026-04-26 11:04 22.97949 71.83308 23273 ft 383 kts 75°
2026-04-26 11:04 22.98547 71.86106 22655 ft 379 kts 76°
2026-04-26 11:04 22.99138 71.88876 22037 ft 375 kts 76°
2026-04-26 11:05 22.99724 71.91627 21424 ft 373 kts 76°
2026-04-26 11:05 23.00304 71.94352 20856 ft 369 kts 76°
2026-04-26 11:05 23.00879 71.97057 20102 ft 369 kts 76°
2026-04-26 11:05 23.01461 71.99782 19003 ft 382 kts 76°
2026-04-26 11:06 23.02058 72.02582 18640 ft 373 kts 76°
2026-04-26 11:06 23.02447 72.04414 18376 ft 365 kts 76°
2026-04-26 11:06 23.03221 72.08056 16807 ft 382 kts 76°
2026-04-26 11:06 23.03829 72.10910 15562 ft 394 kts 77°
2026-04-26 11:07 23.04452 72.13852 14314 ft 406 kts 77°
2026-04-26 11:07 23.05089 72.16874 13114 ft 415 kts 77°
2026-04-26 11:07 23.05731 72.19929 12048 ft 415 kts 77°
2026-04-26 11:07 23.06372 72.22983 11227 ft 412 kts 78°
2026-04-26 11:08 23.06995 72.25949 10872 ft 393 kts 77°
2026-04-26 11:08 23.07585 72.28754 10739 ft 370 kts 77°
2026-04-26 11:08 23.08144 72.31399 10619 ft 349 kts 77°
2026-04-26 11:08 23.08667 72.33870 10502 ft 332 kts 77°
2026-04-26 11:09 23.09293 72.36251 9918 ft 332 kts 64°
2026-04-26 11:09 23.10372 72.38411 9759 ft 318 kts 60°
2026-04-26 11:09 23.11432 72.40487 9539 ft 311 kts 60°
2026-04-26 11:09 23.12477 72.42533 9184 ft 309 kts 60°
2026-04-26 11:10 23.13549 72.44545 8790 ft 307 kts 53°
2026-04-26 11:10 23.15011 72.46214 8428 ft 304 kts 41°
2026-04-26 11:10 23.16566 72.47756 8057 ft 302 kts 40°
2026-04-26 11:10 23.18121 72.49292 7661 ft 301 kts 40°
2026-04-26 11:11 23.19656 72.50811 7437 ft 293 kts 41°
2026-04-26 11:11 23.21134 72.52270 7319 ft 281 kts 40°
2026-04-26 11:11 23.22561 72.53689 7057 ft 276 kts 40°
2026-04-26 11:11 23.23952 72.55078 6738 ft 274 kts 41°
2026-04-26 11:12 23.25348 72.56475 6422 ft 272 kts 40°
2026-04-26 11:12 23.26736 72.57867 6070 ft 271 kts 41°
2026-04-26 11:12 23.28118 72.59255 5709 ft 270 kts 40°
2026-04-26 11:12 23.29350 72.60777 5425 ft 267 kts 61°
2026-04-26 11:13 23.29801 72.62663 5288 ft 253 kts 91°
2026-04-26 11:13 23.29643 72.64538 4960 ft 248 kts 100°
2026-04-26 11:13 23.29384 72.66388 4581 ft 247 kts 101°
2026-04-26 11:13 23.29117 72.68227 4228 ft 246 kts 100°
2026-04-26 11:14 23.28839 72.70062 3923 ft 246 kts 101°
2026-04-26 11:14 23.28570 72.71894 3636 ft 244 kts 101°
2026-04-26 11:14 23.28233 72.73699 3305 ft 242 kts 114°
2026-04-26 11:14 23.27661 72.74702 3205 ft 231 kts 137°
2026-04-26 11:15 23.25878 72.75606 3100 ft 203 kts 182°
2026-04-26 11:15 23.24496 72.75541 3010 ft 196 kts 189°
2026-04-26 11:15 23.23187 72.75392 2993 ft 181 kts 190°
2026-04-26 11:15 23.21960 72.75239 2880 ft 174 kts 190°
2026-04-26 11:16 23.20776 72.75087 2762 ft 170 kts 191°
2026-04-26 11:16 23.19604 72.74939 2590 ft 169 kts 191°
2026-04-26 11:16 23.18478 72.74695 2499 ft 163 kts 207°
2026-04-26 11:16 23.17567 72.73984 2390 ft 161 kts 229°
2026-04-26 11:17 23.16772 72.73130 2218 ft 162 kts 228°
2026-04-26 11:17 23.15980 72.72281 2034 ft 161 kts 226°
2026-04-26 11:17 23.15175 72.71420 1829 ft 159 kts 226°
2026-04-26 11:17 23.14410 72.70601 1641 ft 153 kts 227°
2026-04-26 11:18 23.13680 72.69821 1460 ft 140 kts 226°
2026-04-26 11:18 23.13010 72.69104 1282 ft 133 kts 228°
2026-04-26 11:18 23.12358 72.68407 1134 ft 131 kts 227°
2026-04-26 11:18 23.11713 72.67716 982 ft 135 kts 229°
2026-04-26 11:19 23.11052 72.67014 861 ft 131 kts 226°
2026-04-26 11:19 23.10390 72.66303 713 ft 135 kts 224°
2026-04-26 11:19 23.09737 72.65604 501 ft 126 kts 223°
2026-04-26 11:19 23.09106 72.64912 317 ft 131 kts 224°
2026-04-26 11:20 23.08461 72.64236 211 ft 121 kts 223°
2026-04-26 11:20 23.08095 72.63849 199 ft 99 kts 225°
2026-04-26 11:20 23.07660 72.63377 199 ft 40 kts 224°
2026-04-26 11:20 23.07476 72.63180 195 ft 35 kts 224°
2026-04-26 11:21 23.07307 72.63000 196 ft 32 kts 225°
2026-04-26 11:21 23.07191 72.62849 193 ft 20 kts 250°
2026-04-26 11:21 23.07163 72.62708 195 ft 15 kts 259°
2026-04-26 11:21 23.07152 72.62643 189 ft 10 kts 260°
2026-04-26 11:22 23.07152 72.62592 189 ft 5 kts 308°
2026-04-26 11:22 23.07179 72.62565 188 ft 6 kts 316°
2026-04-26 11:22 23.07207 72.62536 195 ft 5 kts 317°
2026-04-26 11:22 23.07236 72.62507 187 ft 7 kts 317°
2026-04-26 11:23 23.07293 72.62488 186 ft 10 kts 19°
2026-04-26 11:23 23.07349 72.62535 193 ft 9 kts 49°
2026-04-26 11:23 23.07346 72.62570 193 ft 5 kts 122°
2026-04-26 11:23 23.07323 72.62597 186 ft 3 kts 134°
2026-04-26 11:24 23.07312 72.62609 192 ft 2 kts 136°
2026-04-26 11:24 23.07301 72.62620 194 ft 0 kts 136°
2026-04-26 11:24 23.07300 72.62621 189 ft 0 kts 136°